Погода Лынтупы

Погода Лынтупы : погода сейчас, прогноз погоды и архив. Всё, что Вы хотите узнать о погоде Лынтупы!

Хотите узнать прогноз погоды Лынтупы? Тогда Вам сюда: Погода Лынтупы

Поиск расширенной информации на нашем сайте:

Другие новости

Новости СМИ2

Главная страница сайта

Новости сайта

02.10.2013

Напоминаем, что на нашем новом сайте вы можете получить высокодетализированные прогнозы погоды по пунктам России, СНГ и мира (включающие важные для авиации метеовеличины, такие как направление и скорость ветра, видимость, явления погоды, количество и форма облачности, нижняя и верхняя граница облачности), а также ознакомиться с разнообразными материалами по авиационной метеорологии и подборкой полезных ссылок на эту тему.

Сайт Метеоцентр.Азия посвящён разработке технологий оптимизации авиаметеорологического обслуживания, включая проектирование и перспективное создание нескольких автоматизированных авиаметеорологических систем:
- система выпуска высокодетальных прогностических карт явлений погоды для нижнего воздушного пространства по России и ближнему зарубежью;
- система верификации прогнозов TAF (выпускаемых синоптиками официальных АМСГ РФ и ближнего зарубежья) и AUTOTAF (выпускаемых сайтом Метеоцентр.Азия) - выявление ошибок, онлайн-сопоставление с фактической погодой METAR, автоматическое внесение коррективов в прогнозы при резком отклонении фактической погоды от прогноза, подсчёт оправдываемости прогнозов по элементам и в целом;
- система обработки, анализа и отображения авиаметеорологической информации для применения провайдерами метеорологической информации.

Рекомендуем: Аренда опалубки колонн стойки для опалубки.

Погода Лынтупы - сегодня

Время (UTC), дата Ветер
(°,м/с) 
Видим.   Явления Облачность Т
(°С)
Тd
(°С)
f(%) Тe
(°С)
Pmin
(гПа)
dP
(гПа)
Po
(мм)
O2
(г/м3)
Тmin Tmax R s Состояние
почвы
06 25.05.17 360 (С) 15000 м    ясно 
+11.2 +6.5 73 +11  1013.9  741  286  +5.3         
09 25.05.17 350 (С) 15000 м    8/8 930 м 
[Cu hum]
+15.5 +5.5 51 +16  1013.9  0.5  742  282           
15 25.05.17 330 (СЗ) 15000 м    4/4 600 м 
[Cu hum]
+18.9 +3.6 36 +20  1012.8  -0.7  741  279           
18 25.05.17 270 (З) 15000 м    3/3 600 м 
[Sc]
+16.7 +6.1 50 +18  1012.7  -0.3  741  280    +19.5       
21 25.05.17 250 (З) 15000 м    4/4 1000 м 
[Sc]
+11.4 +6.5 72 +13  1013.6  0.5  741  286           
00 26.05.17 240 (ЮЗ) 15000 м    4/0 средняя 
[Ac trans]
+10.3 +7.4 82 +11  1013.8  741  287           
03 26.05.17 280 (З) 15000 м    8/0 средняя 
[Ac trans]
+9.6 +7.7 88 +11  1014  0.2  741  287           
06 26.05.17 310 (СЗ) 8000 м  слаб. ливневой дождь  10/4 300 м кучево-дожд., средняя 
[Cb cap|Ac As]
+10.2 +7.6 84 +11  1015  742  287  +8.9    0.3     
15 26.05.17 310 (СЗ) 15000 м    9/3 1000 м средняя 
[Sc|Ac trans]
+15.5 +5.8 52 +16  1015.1  743  282      0.0     
21 26.05.17 тихо ()   15000 м    8/0 средняя 
[Ac trans]
+8.4 +6.4 87 +8  1017.6  0.9  744  290           
00 27.05.17 тихо ()   15000 м    9/4 1000 м средняя 
[Sc|Ac trans]
+8.8 +6.8 87 +9  1019  1.3  745  290           
09 27.05.17 300 (СЗ) 15000 м    3/3 600 м 
[Cu hum]
+17 +5.9 48 +17  1020.7  0.6  747  282           
12 27.05.17 270 (З) 15000 м    4/3 600 м верхняя 
[Cu med, cong|Ci fib]
+19.5 +3 33 +20  1020.2  -0.3  747  280           
15 27.05.17 280 (З) 15000 м    6/3 1000 м верхняя 
[Cu med, cong|Ci sp]
+19.1 +3 34 +20  1019.9  -0.3  746  281           
18 27.05.17 310 (СЗ) 15000 м    9/3 1000 м средняя, верхняя 
[Sc|Ac trans|Ci fib]
+16.4 +7.1 54 +18  1020.6  0.5  747  283    +20.3       
21 27.05.17 240 (ЮЗ) 15000 м    1/1 1000 м 
[Sc]
+12.8 +7.4 70 +14  1020.7  -0.2  747  286           
00 28.05.17 250 (З) 15000 м    1/1 1000 м 
[Sc]
+10.2 +7.6 84 +10  1020.8  -0.2  746  289           
09 28.05.17 260 (З) 15000 м    4/0 верхняя 
[Ci fib]
+20.9 +10.6 52 +23  1019.5  0.1  746  277           
12 28.05.17 240 (ЮЗ) 15000 м    4/0 верхняя 
[Ci fib]
+24.9 +7.6 33 +25  1017.9  -1.3  745  274           
15 28.05.17 260 (З) 3{10}  15000 м    6/3 600 м верхняя 
[Cu Sc|Ci fib]
+25.8 +11 40 +28  1016.1  -1.6  744  272           
18 28.05.17 270 (З) 15000 м    3/0 верхняя 
[Ci fib]
+23.1 +12.4 51 +28  1015.2  -1.1  743  274    +26.5       
21 28.05.17 220 (ЮЗ) 15000 м    3/0 верхняя 
[Ci fib]
+17.9 +10.9 64 +22  1014.9  -0.8  743  279           
00 29.05.17 230 (ЮЗ) 15000 м    8/0 верхняя 
[Ci sp]
+14.4 +9.3 71 +16  1013.3  -1.8  741  282           
06 29.05.17 240 (ЮЗ) 8000 м  слаб. ливневой дождь  10/6 660 м кучево-дожд., средняя 
[Cb cap|As op]
+16.9 +11.3 70 +21  1008.8  -1.4  738  278  +13.7    0.1     
18 29.05.17 260 (З) 15000 м    8/6 1500 м кучево-дожд., средняя 
[Cb cap|Ac trans]
+19.1 +13.1 68 +26  1007.6  0.4  737  275    +24.7  0.6     
Время (UTC), дата Ветер
(°,м/с) 
Видим.   Явления Облачность Т
(°С)
Тd
(°С)
f(%) Тe
(°С)
Pmin
(гПа)
dP
(гПа)
Po
(мм)
O2
(г/м3)
Тmin Tmax R s Состояние
почвы

Для получения пояснительной информации подведите курсор к названию столбца.

ПОГОДА Лынтупы - архив

Всё, что Вы хотите узнать о погоде Лынтупы - удобно и подробно!

Выберите нужную дату (начиная с 1 января 2015* года) и нажмите кнопку "Найти".
Будут отображены архивные сводки погоды по пункту Лынтупы, начиная с указанной даты.


Отображать данные в формате CSV (для использования в таблицах Excel)


Внимание! Наш архив погоды предназначен исключительно для личного некоммерческого использования в познавательных целях. Если Вам необходимы официальные справки о состоянии погоды (для производственных, юридических, коммерческих и т.п. целей), обращайтесь в органы Росгидромета.

*Примечание: данная дата относится к архиву по метеостанциям СССР (Россия, СНГ, Балтия).
Архив по метеостанциям Зарубежной Европы и Азии (кроме Китая) хранится 10 дней, по другим регионам земного шара (Китай, Африка, Америка, Австралия, Океания) - 1 день.

Лынтупы - район местоположения метеостанции


Название, широта, долгота, высота метеостанции:
Лынтупы 55.1°ш. 26.3°д. 212 м над ур. моря [Беларусь]

Дополнительная информация

В oтличие oт бoльшинства пoгoдных сайтoв мы публикуем пoдрoбную метеoинфoрмацию в детальнoм прoфессиoнальнoм фoрмате.

Характеристики температуры и влажнoсти вoздуха измеряются на высoте 2 м в тени вдали oт зданий и деревьев.
Скoрoсть ветра измеряется на высoте 10 м (на урoвне рoста челoвека скoрoсть ветра ниже в 1.5-2 раза). Если метеoстанция нахoдится в гoрoде или в лесу, тo скoрoсть ветра занижена на 2-4 м/с пo сравнению с oткрытым местoм. Скoрoсть ветра над акватoриями крупных рек и oзёр, а также на вершинах хoлмoв на 2-5 м/с выше, чем в oбычных услoвиях.
Атмoсфернoе давление в разных тoчках местнoсти мoжет значительнo oтличаться oт давления на метеoстанции, в зависимoсти oт услoвий рельефа (при пoдъёме на 10 м давление пoнижается примернo на 1 мм рт.ст.).